Погода в Коста Рей

Италия     39°15′02″N   9°34′13″E
темп.,
°C
ветер,
м/с
пор.,
м/с
влажн.,
%
обл.,
%
осадки,
мм/ч
давл.,
гПа
погр.,
м
4 марта, чт
чт401:00+7ссв129415 0.0 102872
04:00+7с119525 0.0 102659
07:00+8ссв229448 0.1 102569
10:00+12вюв357972 0.3 1025743
13:00+14вюв356874 0.7 1023998
16:00+14вюв346592 0.1 1021852
19:00+10всв129296 0.3 102065
22:00+8в019499 0.1 102058
5 марта, пт
пт501:00+9ююв129290 0.2 101975
04:00+8ююв019469 0.0 101774
07:00+9вюв119484 0.1 101781
10:00+13юв2381100 0.3 1017622
13:00+14ю337799 0.9 1017695
16:00+14ю337499 0.2 1016714
19:00+9юз129482 0.3 101757
22:00+9юз129476 0.0 101840
6 марта, сб
сб601:00+9юз129649 0.0 101949
04:00+9зюз11967 0.0 101947
07:00+9сз11947 0.1 102031
10:00+15в11640 0.1 1022567
13:00+16вюв22668 0.4 1022823
16:00+15вюв227362 0.7 1022650
19:00+10св129451 0.8 102235
22:00+9ссв119567 0.0 102331
7 марта, вс
вс701:00+8с129454 0.0 102333
04:00+8ссв22950 0.0 102238
07:00+8ссв229731 0.0 102248
10:00+13всв228367 0.0 1023397
13:00+15вюв237284 0.1 1021754
16:00+15юв2371100 0.0 1019747
19:00+11вюв119299 0.1 101842
22:00+11зсз0194100 0.7 101836
8 марта, пн
пн801:00+11ююз1296100 1.6 101650
04:00+10з119799 0.5 101542
07:00+10ссв2396100 0.5 1015111
10:00+11всв1295100 0.9 1016182
13:00+14всв1282100 1.5 1016460
16:00+12вюв019198 2.3 1014280
19:00+10ссз019586 3.3 101543
22:00+8ссз119449 0.0 101634